Location: ???? ?????????
(31.1304°N, 31.7111°E)
Time: 01:40:30
(UTC+00:00)

Radarsat Rocket - Visible Passes

Search period start: 28 February 2021 00:00
Search period end: 10 March 2021 00:00
Orbit: 933 x 1492 km, 100.6° (Epoch: 27 February)

Date Brightness Start Highest point End Pass type
(mag) Time Alt. Az. Time Alt. Az. Time Alt. Az.
28 Feb 5.3 03:42:17 10° NNE 03:47:52 45° ESE 03:53:27 10° S visible
01 Mar 5.8 03:29:27 10° NE 03:34:42 34° E 03:39:58 10° SSE visible
02 Mar 6.3 03:16:46 10° NE 03:21:31 26° E 03:26:18 10° SSE visible
02 Mar 7.8 17:20:34 10° WSW 17:22:54 11° W 17:25:10 10° WNW visible
03 Mar 6.8 03:04:17 10° NE 03:08:19 19° E 03:12:24 10° SE visible
03 Mar 7.5 17:05:26 10° SW 17:09:44 15° W 17:13:52 10° WNW visible
04 Mar 7.0 02:52:10 10° ENE 02:55:06 14° E 02:58:05 10° SE visible
04 Mar 7.3 16:51:09 10° SW 16:56:37 20° W 17:01:45 10° NW visible
05 Mar 7.0 16:37:14 10° SSW 16:43:31 26° W 16:49:19 10° NW visible
06 Mar 6.6 16:23:34 10° SSW 16:30:26 32° W 16:36:41 10° NW visible
07 Mar 6.2 16:10:05 10° S 16:17:22 40° WSW 16:23:54 10° NNW visible
08 Mar 5.2 03:45:23 10° NNE 03:50:59 48° ESE 03:56:49 10° S visible
09 Mar 5.8 03:32:31 10° NE 03:37:51 36° E 03:43:24 10° SSE visible
